User: anonymous   Login
Location: Poughquag
(41.6090°N, 73.6820°W)
Time: 10:44:20
(UTC-04:00)
Language:

A-11 Canister half - Orbit

View from above orbital plane
View from above orbital plane
View from above satellite
View from above satellite

Ground track
Ground track

The orbit data is extracted from the following two-line orbital elements,

1    53U 60009E   20221.80257316 +.00000009 +00000-0 +91258-3 0  9999
2    53 047.2767 097.5520 0097245 236.4126 122.7349 12.17242314674947
Epoch (UTC): 08 August 2020 19:15:42
Eccentricity: 0.0097245
inclination: 47.2767°
perigee height: 1527 km
apogee height: 1682 km
right ascension of ascending node: 97.5520°
argument of perigee: 236.4126°
revolutions per day: 12.17242314
mean anomaly at epoch: 122.7349°
orbit number at epoch: 67494

The dashed part of the orbit path shows where the satellite is in the earth's shadow,  

DLR